Location: Pasarilla del Rebollar
(40.6790°N, 5.0062°W)
Time: 11:33:05
(UTC+00:00)

Cosmos 2082 Rocket - Pass Details

Date: 22 April 2026
Orbit: 831 x 853 km, 71.0° (Epoch: 15 May)

Event Time Altitude Azimuth Distance (km) Brightness Sun altitude
Exits shadow 00:59:32 33° 40° (NE) 1,406 3.7 -36.3°
Drops below altitude 10° 01:02:37 10° 29° (NNE) 2,489 5.3 -36.2°
Sets 01:05:06 0° 27° (NNE) 3,429 6.3 -36.1°
